Location: Christian Reformed Church
(43.0975°N, 93.8113°W)
Time: 17:11:01
(UTC+00:00)

Cosmos 1484 Rocket - Pass Details

Date: 13 December 2025
Orbit: 439 x 472 km, 97.6° (Epoch: 15 January)

Event Time Altitude Azimuth Distance (km) Brightness Sun altitude
Rises 23:12:40 0° 169° (S) 2,506 6.4 -6.0°
Reaches altitude 10° 23:14:43 10° 171° (S) 1,630 5.5 -6.3°
Maximum altitude 23:18:13 77° 258° (WSW) 488 2.7 -6.9°
Drops below altitude 10° 23:21:43 10° 345° (NNW) 1,630 5.1 -7.4°
Sets 23:23:46 0° 346° (NNW) 2,506 6.1 -7.8°
